Location: Gajan
(43.0218°N, 1.1244°E)
Time: 07:08:35
(UTC+00:00)

Cosmos 1655 Rocket - Pass Details

Date: 22 April 2021
Orbit: 970 x 1007 km, 82.9° (Epoch: 07 May)

Event Time Altitude Azimuth Distance (km) Brightness Sun altitude
Rises 20:38:05 0° 351° (N) 3,699 7.8 -18.7°
Reaches altitude 10° 20:40:37 10° 351° (N) 2,742 7.0 -19.1°
Maximum altitude 20:46:55 85° 265° (W) 984 4.0 -20.0°
Enters shadow 20:50:54 24° 177° (S) 1,901 5.1 -20.5°
